Tracking 22130 objects as of 21-Jan-2021
HD Live streaming from Space Station
objects crossing your sky now

STARLINK-1554

Track STARLINK-1554 now!
10-day predictions
STARLINK-1554 is classified as:


NORAD ID: 46055
Int'l Code: 2020-055AE
Perigee: 552.8 km
Apogee: 556.0 km
Inclination: 53.1 °
Period: 95.6 minutes
Semi major axis: 6925 km
RCS: Unknown
Launch date: August 7, 2020
Source: United States (US)
Launch site: AIR FORCE EASTERN TEST RANGE (AFETR)
aabbcc
Your satellite tracking list
Your tracking list is empty




NASA's NSSDC Master Catalog

Two Line Element Set (TLE):
1 46055U 20055AE  21021.31066336  .00000317  00000-0  40198-4 0  9993
2 46055  53.0558 246.5294 0002318  83.6038 276.5215 15.06385204 26675
Source of the keplerian elements: AFSPC